Total_Precipitation_Accumulation
1.23 1.26 1.23 1.27 1.22 1.42 1.69 1.77 1.71 1.87 1.89 1.72 1.49 1.33 1.21 1.06 0.86 0.89 1.00 0.96 0.87 0.95 1.14 1.20 1.12 1.07 1.02 0.88 0.79 0.77 0.78 0.73 0.69 0.56 0.43 0.39 0.46 0.51 0.47 0.39 0.34 0.30 0.30
1.72 1.76 1.62 1.56 1.47 1.51 1.70 1.85 1.90 2.30 2.18 2.10 1.70 1.50 1.43 1.33 1.15 1.02 1.07 1.19 0.99 0.86 0.92 1.10 1.23 1.18 1.13 1.04 0.93 0.83 0.77 0.73 0.64 0.48 0.38 0.34 0.41 0.51 0.50 0.45 0.37 0.30 0.23
1.91 1.98 1.94 1.80 1.78 1.76 1.86 1.88 2.07 2.33 2.08 1.98 1.71 1.61 1.50 1.37 1.23 1.22 1.28 1.36 1.22 1.00 0.81 0.87 1.06 1.16 1.22 1.23 1.19 1.03 0.82 0.69 0.62 0.48 0.37 0.33 0.38 0.46 0.47 0.48 0.45 0.33 0.22
2.03 2.11 1.92 1.82 2.07 2.11 2.13 2.17 2.24 2.28 2.18 2.12 1.91 1.60 1.47 1.42 1.11 1.11 1.12 1.08 1.11 0.93 0.91 0.98 1.04 1.09 1.22 1.32 1.34 1.29 1.11 0.86 0.71 0.60 0.47 0.39 0.44 0.47 0.43 0.43 0.43 0.34 0.25
1.90 2.03 1.86 1.92 2.16 2.23 2.20 2.04 2.33 2.30 2.25 2.15 1.81 1.53 1.29 1.14 1.01 0.88 0.83 0.74 0.80 0.77 0.78 0.89 0.94 0.93 1.12 1.36 1.42 1.44 1.40 1.22 0.98 0.83 0.75 0.63 0.56 0.51 0.46 0.45 0.42 0.36 0.28
1.93 2.06 1.94 2.02 2.19 2.26 2.19 2.20 2.31 2.33 2.19 2.13 1.69 1.38 1.17 0.93 0.89 0.81 0.66 0.67 0.65 0.58 0.56 0.71 0.90 0.74 0.94 1.16 1.23 1.40 1.51 1.43 1.24 1.08 1.02 0.94 0.86 0.73 0.58 0.53 0.52 0.47 0.38
1.98 2.16 2.05 2.17 2.19 2.05 2.05 2.21 2.34 2.19 1.98 2.15 1.90 1.32 0.95 0.76 0.77 0.71 0.68 0.73 0.66 0.61 0.62 0.77 0.87 0.82 0.78 0.83 0.85 1.01 1.34 1.52 1.41 1.22 1.09 1.04 1.10 1.09 0.81 0.72 0.72 0.66 0.56
1.85 1.88 1.92 1.91 1.95 1.99 1.99 2.06 2.23 2.05 1.74 1.95 1.91 1.62 1.05 0.81 0.71 0.62 0.68 0.69 0.65 0.70 0.73 0.80 0.98 1.07 0.96 1.00 0.83 0.71 1.03 1.44 1.54 1.48 1.28 1.16 1.21 1.25 1.04 1.02 0.92 0.78 0.68
1.54 1.56 1.59 1.72 1.94 2.04 1.97 2.01 2.04 1.92 1.63 1.65 1.80 1.86 1.36 0.98 0.76 0.51 0.54 0.62 0.73 0.85 0.83 0.97 1.05 1.11 1.14 1.25 1.23 1.02 0.85 0.96 1.23 1.54 1.57 1.39 1.23 1.15 1.24 1.33 1.21 0.95 0.75
1.40 1.37 1.40 1.45 1.53 1.61 1.64 1.57 1.70 1.81 1.76 1.58 1.69 1.74 1.59 1.41 1.21 0.77 0.60 0.63 0.78 0.84 0.92 0.93 0.90 0.93 1.16 1.42 1.48 1.28 1.08 0.92 0.92 1.29 1.58 1.61 1.38 1.19 1.28 1.47 1.62 1.36 0.92
1.27 1.27 1.22 1.20 1.17 1.23 1.36 1.39 1.50 1.54 1.59 1.57 1.60 1.67 1.64 1.61 1.56 1.35 0.96 0.91 0.90 0.78 0.83 0.88 0.87 0.89 1.10 1.31 1.39 1.28 1.27 1.08 1.00 1.02 1.16 1.33 1.34 1.27 1.24 1.44 1.82 1.89 1.54
1.03 1.02 1.05 1.07 1.05 1.10 1.20 1.29 1.36 1.32 1.41 1.47 1.50 1.58 1.64 1.62 1.65 1.66 1.33 1.17 1.07 0.91 0.92 0.87 0.85 0.88 1.05 1.17 1.07 1.14 1.10 0.96 0.90 0.92 0.95 1.06 1.08 1.11 1.17 1.36 1.72 2.04 2.08
0.74 0.77 0.77 0.86 0.91 1.00 1.04 1.04 1.13 1.23 1.36 1.44 1.46 1.52 1.56 1.54 1.54 1.60 1.53 1.29 1.17 1.05 1.07 1.00 0.89 0.89 0.88 1.11 1.04 0.91 0.76 0.66 0.62 0.63 0.62 0.69 0.79 0.86 0.95 1.09 1.32 1.61 1.88
0.56 0.61 0.70 0.83 0.92 0.96 0.96 0.99 0.99 1.06 1.21 1.34 1.43 1.60 1.51 1.42 1.45 1.52 1.61 1.57 1.36 1.21 1.22 1.08 0.96 0.89 0.89 0.98 0.93 0.77 0.65 0.54 0.50 0.46 0.42 0.41 0.44 0.51 0.62 0.77 0.93 1.07 1.22
0.54 0.57 0.66 0.77 0.90 1.01 1.04 1.03 1.03 1.13 1.27 1.35 1.48 1.58 1.50 1.47 1.49 1.50 1.60 1.69 1.62 1.43 1.25 1.17 1.07 0.93 0.89 0.85 0.80 0.78 0.75 0.63 0.50 0.42 0.35 0.33 0.33 0.34 0.39 0.49 0.63 0.76 0.84
0.50 0.55 0.62 0.69 0.72 0.79 0.85 0.86 0.94 1.06 1.22 1.28 1.29 1.35 1.41 1.44 1.57 1.53 1.60 1.67 1.71 1.61 1.32 1.26 1.17 0.97 1.01 0.77 0.73 0.74 0.73 0.63 0.48 0.39 0.35 0.32 0.34 0.35 0.35 0.37 0.44 0.55 0.66
0.44 0.49 0.54 0.55 0.56 0.56 0.59 0.65 0.76 0.90 0.98 0.99 0.97 1.01 1.06 1.15 1.29 1.33 1.41 1.48 1.60 1.64 1.37 1.35 1.48 1.35 1.31 1.08 0.90 0.82 0.67 0.61 0.54 0.44 0.36 0.31 0.30 0.34 0.37 0.37 0.36 0.39 0.46
0.38 0.42 0.44 0.45 0.45 0.47 0.54 0.60 0.68 0.75 0.83 0.83 0.82 0.84 0.81 0.90 1.06 1.12 1.21 1.31 1.48 1.67 1.52 1.45 1.60 1.65 1.56 1.36 1.22 1.04 0.78 0.62 0.64 0.59 0.44 0.36 0.31 0.31 0.37 0.39 0.37 0.35 0.37
0.32 0.35 0.39 0.43 0.47 0.54 0.64 0.75 0.81 0.79 0.71 0.64 0.60 0.59 0.59 0.67 0.79 0.91 1.05 1.12 1.24 1.56 1.62 1.50 1.55 1.79 1.78 1.61 1.55 1.29 1.10 0.99 0.74 0.68 0.54 0.43 0.38 0.36 0.38 0.43 0.42 0.38 0.35
0.34 0.41 0.46 0.53 0.61 0.64 0.67 0.72 0.73 0.76 0.71 0.61 0.50 0.43 0.42 0.51 0.64 0.75 0.85 0.96 1.08 1.24 1.44 1.51 1.52 1.74 1.84 1.74 1.83 1.63 1.39 1.22 1.00 0.79 0.69 0.50 0.43 0.44 0.43 0.44 0.46 0.46 0.44
0.29 0.43 0.51 0.57 0.66 0.63 0.58 0.58 0.58 0.54 0.54 0.55 0.49 0.40 0.35 0.38 0.46 0.57 0.63 0.75 0.89 1.04 1.16 1.33 1.45 1.62 1.84 1.83 1.71 1.69 1.53 1.37 1.28 1.16 1.11 0.78 0.51 0.43 0.43 0.44 0.48 0.54 0.60
0.28 0.36 0.39 0.45 0.51 0.45 0.39 0.37 0.38 0.40 0.43 0.46 0.47 0.43 0.37 0.33 0.33 0.37 0.43 0.51 0.59 0.70 0.87 1.08 1.22 1.36 1.59 1.78 1.76 1.79 1.71 1.48 1.37 1.29 1.34 1.36 1.02 0.76 0.60 0.42 0.40 0.48 0.61
0.33 0.38 0.37 0.37 0.40 0.44 0.35 0.29 0.26 0.29 0.36 0.40 0.43 0.42 0.32 0.27 0.29 0.29 0.30 0.34 0.42 0.43 0.51 0.73 0.89 0.95 1.11 1.39 1.68 1.82 1.88 1.72 1.54 1.52 1.50 1.64 1.71 1.44 0.96 0.66 0.54 0.45 0.53
0.45 0.47 0.41 0.40 0.41 0.40 0.33 0.26 0.23 0.24 0.31 0.37 0.41 0.39 0.36 0.31 0.31 0.33 0.36 0.37 0.33 0.32 0.32 0.37 0.48 0.67 0.82 1.04 1.39 1.60 1.83 2.01 1.90 1.82 1.73 1.82 1.93 2.13 1.68 1.11 0.87 0.65 0.61
0.50 0.50 0.45 0.43 0.45 0.43 0.34 0.25 0.25 0.31 0.37 0.39 0.42 0.39 0.37 0.36 0.31 0.26 0.33 0.37 0.33 0.31 0.28 0.31 0.38 0.52 0.71 0.84 1.12 1.44 1.67 1.78 1.85 1.93 1.89 1.94 1.95 2.08 2.40 1.98 1.30 0.87 0.66
0.53 0.49 0.47 0.51 0.53 0.52 0.41 0.28 0.26 0.32 0.41 0.44 0.53 0.52 0.39 0.31 0.30 0.25 0.27 0.33 0.32 0.30 0.31 0.30 0.34 0.40 0.50 0.64 0.84 1.07 1.25 1.41 1.46 1.60 1.55 1.47 1.52 1.62 2.09 2.41 2.07 1.42 0.96